This is the latest recevied weather packets stored in our database for station/object W4SPD. If no packets are shown the sender has not sent any weather packets the latest 10 day(s).
| Time | Temp. | Humidity | Pressure | Rain* | Wind** | Luminosity | Snow |
|---|---|---|---|---|---|---|---|
| 1777990572 | 18.33° C | 68% | - | 0 mm | - | - | - |
| 1777989965 | 17.78° C | 71% | - | 0 mm | - | - | - |
| 1777989663 | 17.78° C | 70% | - | 0 mm | - | - | - |
| 1777989358 | 17.22° C | 70% | - | 0 mm | - | - | - |
| 1777989055 | 16.67° C | 71% | - | 0 mm | - | - | - |
| 1777988750 | 16.67° C | 73% | - | 0 mm | - | - | - |
| 1777988449 | 16.67° C | 73% | - | 0 mm | - | - | - |
| 1777988145 | 16.11° C | 73% | - | 0 mm | - | - | - |
| 1777987841 | 16.11° C | 74% | - | 0 mm | - | - | - |
| 1777987538 | 15.56° C | 79% | - | 0 mm | - | - | - |
| 1777987235 | 15.56° C | 79% | - | 0 mm | - | - | - |
| 1777986932 | 15° C | 78% | - | 0 mm | - | - | - |
| 1777986630 | 14.44° C | 81% | - | 0 mm | - | - | - |
| 1777986327 | 13.89° C | 82% | - | 0 mm | - | - | - |
| 1777986026 | 13.89° C | 83% | - | 0 mm | - | - | - |
| 1777985722 | 13.33° C | 87% | - | 0 mm | - | - | - |
| 1777985419 | 12.78° C | 89% | - | 0 mm | - | - | - |
| 1777985115 | 12.78° C | 90% | - | 0 mm | - | - | - |
| 1777984812 | 12.22° C | 91% | - | 0 mm | - | - | - |
| 1777984509 | 12.22° C | 90% | - | 0 mm | - | - | - |
| 1777984204 | 12.22° C | 90% | - | 0 mm | - | - | - |
| 1777983902 | 11.67° C | 90% | - | 0 mm | - | - | - |
| 1777983598 | 11.67° C | 90% | - | 0 mm | - | - | - |
| 1777983295 | 11.67° C | 90% | - | 0 mm | - | - | - |
| 1777982991 | 11.67° C | 90% | - | 0 mm | - | - | - |
* Rain latest hour (hover to see other rain measurements)
** Current wind speed in m/s (hover to see current wind gust speed)